| time (UTC) | temp C | wind direction | speed KPH | gust KPH | rain 1hr cm | rain 24hr cm | rain mn cm | humidity % | barometer mb |
| 20260505191557 | 0 | 0 | 0.0 | 0.0 | 0.00 | 0.99 | 0.20 | 94 | 1013.7 |
| 20260505184600 | 0 | 0 | 0.0 | 0.0 | 0.00 | 0.99 | 0.20 | 94 | 1013.5 |
| 20260505183059 | 0 | 0 | 0.0 | 0.0 | 0.00 | 0.99 | 0.20 | 94 | 1013.7 |
| 20260505181556 | 0 | 0 | 0.0 | 0.0 | 0.00 | 0.99 | 0.20 | 94 | 1014.2 |
| 20260505174558 | 0 | 19 | 0.0 | 1.6 | 0.00 | 0.99 | 0.20 | 94 | 1014.2 |
| 20260505173056 | 0 | 0 | 0.0 | 1.6 | 0.00 | 0.99 | 0.20 | 94 | 1014.4 |
| 20260505171557 | 0 | 0 | 0.0 | 3.2 | 0.00 | 0.99 | 0.20 | 94 | 1014.7 |
| 20260505170056 | 0 | 0 | 0.0 | 4.8 | 0.00 | 0.99 | 0.20 | 94 | 1014.8 |
| 20260505164623 | 0 | 0 | 1.6 | 8.0 | 0.00 | 0.99 | 0.20 | 94 | 1014.6 |
| 20260505163056 | 0 | 0 | 1.6 | 4.8 | 0.00 | 0.99 | 0.20 | 94 | 1014.6 |
| 20260505161559 | 0 | 32 | 3.2 | 6.4 | 0.00 | 0.99 | 0.20 | 94 | 1014.6 |
| 20260505160108 | 0 | 29 | 1.6 | 6.4 | 0.00 | 0.99 | 0.20 | 94 | 1014.7 |
| 20260505153055 | 0 | 31 | 0.0 | 3.2 | 0.00 | 0.99 | 0.20 | 94 | 1014.9 |
| 20260505151606 | 0 | 0 | 0.0 | 1.6 | 0.00 | 0.99 | 0.20 | 94 | 1014.9 |
| 20260505140114 | -1 | 94 | 0.0 | 3.2 | 0.00 | 0.99 | 0.20 | 94 | 1014.9 |
| 20260505130111 | -1 | 0 | 0.0 | 1.6 | 0.00 | 0.99 | 0.20 | 94 | 1014.4 |
| 20260505124617 | 0 | 0 | 0.0 | 1.6 | 0.00 | 0.99 | 0.20 | 94 | 1014.4 |
| 20260505123116 | 0 | 132 | 0.0 | 0.0 | 0.00 | 0.99 | 0.20 | 94 | 1014.4 |
| 20260505121555 | 0 | 87 | 0.0 | 3.2 | 0.00 | 0.99 | 0.20 | 94 | 1014.2 |
| 20260505120113 | 0 | 0 | 0.0 | 3.2 | 0.00 | 0.99 | 0.20 | 94 | 1014.2 |
| 20260505114555 | 0 | 0 | 0.0 | 8.0 | 0.00 | 0.99 | 0.20 | 94 | 1013.8 |
| 20260505113058 | 0 | 85 | 1.6 | 3.2 | 0.00 | 0.99 | 0.20 | 94 | 1014.0 |
| 20260505111559 | 0 | 0 | 0.0 | 0.0 | 0.00 | 0.99 | 0.20 | 94 | 1013.7 |
| 20260505110107 | 0 | 0 | 0.0 | 1.6 | 0.00 | 0.99 | 0.20 | 94 | 1013.7 |
| 20260505101559 | 0 | 0 | 0.0 | 6.4 | 0.10 | 0.99 | 0.20 | 93 | 1013.6 |
| 20260505100059 | 1 | 356 | 0.0 | 6.4 | 0.18 | 0.99 | 0.20 | 94 | 1013.5 |
| 20260505094602 | 1 | 274 | 0.0 | 4.8 | 0.18 | 0.99 | 0.20 | 93 | 1013.5 |
| 20260505093100 | 1 | 108 | 1.6 | 6.4 | 0.13 | 0.94 | 0.15 | 94 | 1013.3 |
| 20260505091609 | 2 | 113 | 3.2 | 12.9 | 0.08 | 0.89 | 0.10 | 94 | 1013.3 |
| 20260505090058 | 2 | 102 | 4.8 | 12.9 | 0.00 | 0.81 | 0.03 | 93 | 1013.2 |
| 20260505084559 | 2 | 71 | 3.2 | 9.7 | 0.00 | 0.81 | 0.03 | 93 | 1013.2 |
| 20260505083100 | 2 | 56 | 3.2 | 14.5 | 0.00 | 0.81 | 0.03 | 93 | 1013.2 |
| 20260505081557 | 2 | 64 | 6.4 | 16.1 | 0.00 | 0.81 | 0.03 | 92 | 1013.3 |
| 20260505080107 | 3 | 47 | 6.4 | 14.5 | 0.03 | 0.81 | 0.03 | 92 | 1013.3 |
| 20260505074555 | 4 | 25 | 3.2 | 6.4 | 0.03 | 0.81 | 0.03 | 90 | 1013.2 |
| 20260505073103 | 4 | 0 | 0.0 | 0.0 | 0.03 | 0.81 | 0.03 | 90 | 1013.3 |
| 20260505071557 | 4 | 0 | 0.0 | 0.0 | 0.03 | 0.81 | 0.03 | 90 | 1013.3 |
| 20260505070057 | 4 | 0 | 0.0 | 1.6 | 0.00 | 0.79 | 0.00 | 90 | 1013.3 |
| 20260505064604 | 3 | 0 | 0.0 | 1.6 | 0.00 | 0.79 | 0.00 | 90 | 1013.3 |
| 20260505063113 | 3 | 0 | 0.0 | 0.0 | 0.00 | 0.79 | 0.00 | 92 | 1013.2 |
| 20260505061557 | 3 | 0 | 0.0 | 0.0 | 0.00 | 0.79 | 0.00 | 92 | 1013.1 |
| 20260505060100 | 3 | 0 | 0.0 | 0.0 | 0.00 | 0.79 | 0.00 | 91 | 1013.2 |
| 20260505054610 | 3 | 0 | 0.0 | 0.0 | 0.00 | 0.79 | 0.79 | 89 | 1013.4 |
| 20260505053100 | 3 | 266 | 0.0 | 3.2 | 0.00 | 0.79 | 0.79 | 90 | 1013.1 |
| 20260505051554 | 3 | 0 | 0.0 | 0.0 | 0.00 | 0.79 | 0.79 | 91 | 1012.9 |
| 20260505050103 | 3 | 0 | 0.0 | 3.2 | 0.00 | 0.79 | 0.79 | 89 | 1012.8 |
| 20260505041559 | 3 | 0 | 0.0 | 4.8 | 0.03 | 0.79 | 0.79 | 89 | 1013.5 |
| 20260505040059 | 3 | 0 | 0.0 | 1.6 | 0.03 | 0.79 | 0.79 | 90 | 1013.5 |
| 20260505034557 | 4 | 0 | 0.0 | 0.0 | 0.15 | 0.79 | 0.79 | 90 | 1013.5 |
| 20260505033057 | 4 | 200 | 1.6 | 6.4 | 0.41 | 0.79 | 0.79 | 88 | 1013.6 |
| 20260505031607 | 4 | 219 | 1.6 | 6.4 | 0.56 | 0.76 | 0.76 | 87 | 1013.7 |
| 20260505030113 | 5 | 0 | 1.6 | 6.4 | 0.64 | 0.76 | 0.76 | 85 | 1013.5 |
| 20260505024606 | 5 | 226 | 0.0 | 6.4 | 0.56 | 0.64 | 0.64 | 86 | 1013.5 |
| 20260505023059 | 6 | 192 | 3.2 | 11.3 | 0.33 | 0.38 | 0.38 | 87 | 1013.5 |
| 20260505021608 | 6 | 0 | 3.2 | 4.8 | 0.15 | 0.20 | 0.20 | 87 | 1013.1 |
| 20260505020056 | 6 | 0 | 0.0 | 0.0 | 0.10 | 0.13 | 0.13 | 84 | 1012.9 |
| 20260505014608 | 7 | 0 | 0.0 | 1.6 | 0.05 | 0.08 | 0.08 | 80 | 1012.8 |
| 20260505013101 | 7 | 98 | 0.0 | 6.4 | 0.03 | 0.05 | 0.05 | 74 | 1012.2 |
| 20260505011606 | 8 | 25 | 0.0 | 1.6 | 0.03 | 0.05 | 0.05 | 64 | 1012.2 |
| 20260505010056 | 9 | 0 | 1.6 | 4.8 | 0.00 | 0.03 | 0.03 | 60 | 1012.1 |
| 20260505004556 | 10 | 0 | 0.0 | 4.8 | 0.00 | 0.03 | 0.03 | 59 | 1012.2 |
| 20260505003055 | 10 | 18 | 1.6 | 6.4 | 0.00 | 0.03 | 0.03 | 58 | 1012.0 |
| 20260505001558 | 10 | 56 | 0.0 | 4.8 | 0.00 | 0.03 | 0.03 | 58 | 1012.0 |
| 20260505000115 | 10 | 0 | 0.0 | 3.2 | 0.00 | 0.03 | 0.03 | 60 | 1012.0 |
| 20260504234558 | 10 | 0 | 0.0 | 4.8 | 0.00 | 0.03 | 0.03 | 60 | 1011.9 |
| 20260504233108 | 10 | 0 | 0.0 | 1.6 | 0.00 | 0.03 | 0.03 | 61 | 1012.0 |
| 20260504231555 | 9 | 0 | 0.0 | 4.8 | 0.03 | 0.03 | 0.03 | 65 | 1012.0 |
| 20260504230056 | 9 | 0 | 3.2 | 14.5 | 0.03 | 0.03 | 0.03 | 65 | 1011.5 |
| 20260504224609 | 8 | 94 | 0.0 | 3.2 | 0.03 | 0.03 | 0.03 | 77 | 1011.9 |
| 20260504223131 | 8 | 233 | 1.6 | 9.7 | 0.03 | 0.03 | 0.03 | 67 | 1012.4 |
| 20260504221600 | 11 | 241 | 3.2 | 9.7 | 0.00 | 0.00 | 0.00 | 54 | 1012.8 |
| 20260504220100 | 11 | 0 | 0.0 | 11.3 | 0.00 | 0.00 | 0.00 | 46 | 1011.9 |
| 20260504214559 | 11 | 0 | 4.8 | 12.9 | 0.00 | 0.00 | 0.00 | 45 | 1011.1 |
| 20260504213105 | 12 | 36 | 4.8 | 17.7 | 0.00 | 0.00 | 0.00 | 40 | 1011.2 |
| 20260504211602 | 13 | 30 | 8.0 | 20.9 | 0.00 | 0.00 | 0.00 | 37 | 1011.4 |
| 20260504210100 | 15 | 27 | 0.0 | 22.5 | 0.00 | 0.00 | 0.00 | 33 | 1011.2 |
| 20260504204557 | 17 | 49 | 1.6 | 11.3 | 0.00 | 0.00 | 0.00 | 26 | 1010.8 |
| 20260504203111 | 16 | 0 | 1.6 | 12.9 | 0.00 | 0.00 | 0.00 | 30 | 1010.7 |
| 20260504201601 | 15 | 5 | 0.0 | 9.7 | 0.00 | 0.00 | 0.00 | 29 | 1010.9 |
| 20260504200115 | 15 | 194 | 1.6 | 29.0 | 0.00 | 0.00 | 0.00 | 30 | 1011.1 |
| 20260504194559 | 15 | 283 | 9.7 | 20.9 | 0.00 | 0.00 | 0.00 | 31 | 1011.5 |
| 20260504193056 | 15 | 210 | 6.4 | 22.5 | 0.00 | 0.00 | 0.00 | 29 | 1011.2 |